Radiation Dose measured at exhaust stack monitor of Fukushima Daiichi Nuclear Power Station
Date,Time,Unit 5 6 shared exhaust cylinders,Wind Direction,Wind Velocity(m/s)
2022/11/25,00:00,3.7,northwest,6.5
2022/11/25,00:10,3.8,northwest,5.4
2022/11/25,00:20,3.8,northwest,5.4
2022/11/25,00:30,3.7,west-northwest,5.2
2022/11/25,00:40,3.8,northwest,8.5
2022/11/25,00:50,3.7,west-northwest,7.5
2022/11/25,01:00,3.7,west-northwest,8.0
2022/11/25,01:10,3.7,west-northwest,6.0
2022/11/25,01:20,3.6,northwest,5.8
2022/11/25,01:30,3.8,west-northwest,5.7
2022/11/25,01:40,3.8,northwest,4.6
2022/11/25,01:50,3.7,northwest,5.6
2022/11/25,02:00,3.8,northwest,5.1
2022/11/25,02:10,3.8,northwest,4.4
2022/11/25,02:20,3.6,northwest,5.3
2022/11/25,02:30,3.7,north-northwest,6.6
2022/11/25,02:40,3.7,north-northwest,6.6
2022/11/25,02:50,3.7,north-northwest,6.8
2022/11/25,03:00,3.9,north,7.5
2022/11/25,03:10,3.6,north-northwest,7.9
2022/11/25,03:20,3.6,north-northwest,8.9
2022/11/25,03:30,3.7,north-northwest,8.0
2022/11/25,03:40,3.8,north-northwest,5.9
2022/11/25,03:50,3.9,northwest,5.2
2022/11/25,04:00,3.7,northwest,5.2
2022/11/25,04:10,3.8,northwest,2.3
2022/11/25,04:20,3.8,northwest,4.1
2022/11/25,04:30,3.7,north-northwest,5.1
2022/11/25,04:40,3.7,northwest,4.8
2022/11/25,04:50,3.6,northwest,4.1
2022/11/25,05:00,3.7,northwest,4.8
2022/11/25,05:10,3.7,northwest,4.1
2022/11/25,05:20,3.7,north-northwest,4.6
2022/11/25,05:30,3.7,northwest,2.5
2022/11/25,05:40,3.7,northwest,3.5
2022/11/25,05:50,3.8,northwest,4.0
2022/11/25,06:00,3.6,northwest,5.0
2022/11/25,06:10,3.9,northwest,4.1
2022/11/25,06:20,3.6,west-northwest,3.1
2022/11/25,06:30,3.6,west-northwest,4.4
2022/11/25,06:40,3.8,west-northwest,4.4
2022/11/25,06:50,3.9,west,3.5
2022/11/25,07:00,3.7,west-northwest,2.3
2022/11/25,07:10,3.8,northwest,2.9
2022/11/25,07:20,3.9,northwest,3.1
2022/11/25,07:30,3.6,northwest,2.9
2022/11/25,07:40,3.7,northwest,2.6
2022/11/25,07:50,3.8,north-northwest,3.0
2022/11/25,08:00,3.7,northwest,3.3
2022/11/25,08:10,3.9,northwest,2.6
2022/11/25,08:20,3.5,northwest,2.3
2022/11/25,08:30,3.7,north-northwest,2.5
2022/11/25,08:40,3.8,north-northwest,2.0
2022/11/25,08:50,3.8,north,3.3
2022/11/25,09:00,3.6,north-northwest,2.6
2022/11/25,09:10,3.6,northwest,2.8
2022/11/25,09:20,3.7,north-northwest,2.0
2022/11/25,09:30,3.7,northwest,2.3
2022/11/25,09:40,3.6,north-northwest,3.1
2022/11/25,09:50,3.8,north-northwest,3.6
2022/11/25,10:00,3.8,north-northwest,2.6
2022/11/25,10:10,3.7,north-northwest,3.9
2022/11/25,10:20,3.8,northwest,3.0
2022/11/25,10:30,3.7,north,3.1
2022/11/25,10:40,3.7,north-northwest,2.6
2022/11/25,10:50,3.8,northeast,3.5
2022/11/25,11:00,3.7,northeast,4.2
2022/11/25,11:10,3.7,northeast,4.5
2022/11/25,11:20,3.7,northeast,4.1
2022/11/25,11:30,3.8,northeast,4.4
2022/11/25,11:40,3.6,east-northeast,4.5
2022/11/25,11:50,3.8,east-northeast,3.4
2022/11/25,12:00,3.6,east-northeast,3.0
2022/11/25,12:10,4.0,east,3.2
2022/11/25,12:20,3.7,east-northeast,2.3
2022/11/25,12:30,3.8,east,1.9
2022/11/25,12:40,3.8,east-southeast,2.9
2022/11/25,12:50,3.7,east-southeast,2.3
2022/11/25,13:00,3.6,east,2.0
2022/11/25,13:10,3.8,east-southeast,2.0
2022/11/25,13:20,3.9,east,2.3
2022/11/25,13:30,3.7,east,1.9
2022/11/25,13:40,3.7,east-southeast,2.3
2022/11/25,13:50,3.7,east,2.5
2022/11/25,14:00,3.7,east-southeast,2.3
2022/11/25,14:10,3.6,east-southeast,2.9
2022/11/25,14:20,3.5,east-southeast,3.8
2022/11/25,14:30,3.7,east-southeast,2.6
2022/11/25,14:40,3.8,east-southeast,2.0
2022/11/25,14:50,3.9,east-southeast,2.2
2022/11/25,15:00,3.8,east-southeast,1.5
2022/11/25,15:10,3.7,southeast,1.7
2022/11/25,15:20,3.7,southeast,2.6
2022/11/25,15:30,3.7,southeast,2.0
2022/11/25,15:40,3.6,southeast,1.7
2022/11/25,15:50,3.6,southeast,2.6
2022/11/25,16:00,3.8,southeast,2.8
2022/11/25,16:10,3.6,southeast,2.6
2022/11/25,16:20,3.9,southeast,3.5
2022/11/25,16:30,3.8,south-southeast,3.1
2022/11/25,16:40,3.8,south-southeast,2.3
2022/11/25,16:50,3.7,south-southeast,2.8
2022/11/25,17:00,3.7,south-southeast,4.4
2022/11/25,17:10,3.6,south-southeast,3.5
2022/11/25,17:20,3.8,south,3.8
2022/11/25,17:30,3.8,south,4.4
2022/11/25,17:40,3.7,south-southeast,4.4
2022/11/25,17:50,3.9,south,4.2
2022/11/25,18:00,3.7,south,3.6
2022/11/25,18:10,3.6,south,4.4
2022/11/25,18:20,3.5,south,3.9
2022/11/25,18:30,3.8,south,4.3
2022/11/25,18:40,3.7,south-southwest,4.0
2022/11/25,18:50,3.8,south,4.2
2022/11/25,19:00,3.7,south,4.5
2022/11/25,19:10,3.7,south-southwest,4.7
2022/11/25,19:20,3.8,south,5.2
2022/11/25,19:30,3.6,south,5.2
2022/11/25,19:40,3.8,south,5.5
2022/11/25,19:50,3.6,south,5.7
2022/11/25,20:00,3.9,south,5.7
2022/11/25,20:10,3.5,south-southwest,5.9
2022/11/25,20:20,3.8,south-southwest,6.2
2022/11/25,20:30,3.7,south-southwest,6.9
2022/11/25,20:40,3.7,south,7.2
2022/11/25,20:50,3.7,south,7.7
2022/11/25,21:00,3.6,south-southwest,7.3
2022/11/25,21:10,3.8,south-southwest,7.2
2022/11/25,21:20,3.8,south-southwest,7.6
2022/11/25,21:30,3.8,south-southwest,8.0
2022/11/25,21:40,3.7,south-southwest,8.9
2022/11/25,21:50,3.5,south,9.5
2022/11/25,22:00,3.8,south,9.5
2022/11/25,22:10,3.7,south,9.9
2022/11/25,22:20,3.7,south,9.6
2022/11/25,22:30,3.7,south-southwest,9.7
2022/11/25,22:40,3.5,south,9.6
2022/11/25,22:50,3.7,south,9.5
2022/11/25,23:00,3.7,south,9.2
2022/11/25,23:10,3.6,south,8.6
2022/11/25,23:20,3.8,south,9.1
2022/11/25,23:30,3.6,south,8.2
2022/11/25,23:40,3.8,south,9.7
2022/11/25,23:50,3.6,south,9.6
